Overview Statistics Trail Chart Weather Telemetry Raw packets
 

This is the latest recevied weather packets stored in our database for station/object W5CMS-13. If no packets are shown the sender has not sent any weather packets the latest 10 day(s).

<< 34 35 36 37 38 39 40 >>
Time Temp. Humidity Pressure Rain* Wind** Luminosity Snow
1788098716 29.44° C 69% 1016.3 hPa 0 mm - - -
1788098116 28.89° C 70% 1016.3 hPa 0 mm - - -
1788097517 28.89° C 71% 1016.2 hPa 0 mm - - -
1788096916 28.33° C 71% 1016.3 hPa 0 mm - - -
1788096316 27.78° C 72% 1016.1 hPa 0 mm - - -
1788095716 27.78° C 72% 1016 hPa 0 mm - - -
1788095116 27.22° C 73% 1015.8 hPa 0 mm - - -
1788094516 27.22° C 74% 1015.7 hPa 0 mm - - -
1788093916 26.67° C 74% 1015.6 hPa 0 mm - - -
1788093316 26.11° C 74% 1015.4 hPa 0 mm - - -
1788092717 26.11° C 74% 1015.4 hPa 0 mm - - -
1788092116 26.11° C 74% 1015.2 hPa 0 mm - - -
1788091516 26.11° C 74% 1015.2 hPa 0 mm - - -
1788090916 26.67° C 72% 1015 hPa 0 mm - - -
1788090317 26.67° C 72% 1014.9 hPa 0 mm - - -
1788089716 26.67° C 71% 1014.7 hPa 0 mm - - -
1788089116 26.67° C 71% 1014.7 hPa 0 mm - - -
1788088516 26.67° C 70% 1014.6 hPa 0 mm - - -
1788087916 26.11° C 71% 1014.7 hPa 0 mm - - -
1788087316 26.11° C 70% 1014.5 hPa 0 mm - - -
1788086716 25.56° C 70% 1014.4 hPa 0 mm - - -
1788086117 26.11° C 69% 1014.3 hPa 0 mm - - -
1788085517 26.11° C 69% 1014.2 hPa 0 mm - - -
1788084916 26.11° C 67% 1014.2 hPa 0 mm - - -
1788084316 26.67° C 66% 1014.3 hPa 0 mm - - -

* Rain latest hour (hover to see other rain measurements)
** Current wind speed in m/s (hover to see current wind gust speed)